This is the latest recevied weather packets stored in our database for station/object K3CHZ. If no packets are shown the sender has not sent any weather packets the latest 10 day(s).
| Time | Temp. | Humidity | Pressure | Rain* | Wind** | Luminosity | Snow |
|---|---|---|---|---|---|---|---|
| 1777916842 | 21.11° C | 39% | 1012.3 hPa | 0 mm | - | - | - |
| 1777916542 | 21.11° C | 39% | 1012.4 hPa | 0 mm | - | - | - |
| 1777916244 | 21.11° C | 38% | 1012.5 hPa | 0 mm | - | - | - |
| 1777915942 | 21.11° C | 38% | 1012.6 hPa | 0 mm | - | - | - |
| 1777915639 | 20.56° C | 37% | 1012.6 hPa | 0 mm | - | - | - |
| 1777915340 | 20.56° C | 36% | 1012.7 hPa | 0 mm | - | - | - |
| 1777915039 | 20.56° C | 37% | 1012.7 hPa | 0 mm | - | - | - |
| 1777914740 | 20.56° C | 37% | 1012.8 hPa | 0 mm | - | - | - |
| 1777914439 | 20.56° C | 39% | 1012.9 hPa | 0 mm | - | - | - |
| 1777914138 | 20.56° C | 37% | 1012.9 hPa | 0 mm | - | - | - |
| 1777913839 | 20.56° C | 38% | 1012.9 hPa | 0 mm | - | - | - |
| 1777913539 | 20.56° C | 38% | 1013.1 hPa | 0 mm | - | - | - |
| 1777913238 | 20.56° C | 36% | 1013 hPa | 0 mm | - | - | - |
| 1777912940 | 20.56° C | 37% | 1013.1 hPa | 0 mm | - | - | - |
| 1777912639 | 20.56° C | 39% | 1013.1 hPa | 0 mm | - | - | - |
| 1777912339 | 20.56° C | 38% | 1013.1 hPa | 0 mm | - | - | - |
| 1777912037 | 20° C | 39% | 1013.2 hPa | 0 mm | - | - | - |
| 1777911735 | 20° C | 40% | 1013.4 hPa | 0 mm | - | - | - |
| 1777911436 | 20° C | 37% | 1013.4 hPa | 0 mm | - | - | - |
| 1777911136 | 20.56° C | 38% | 1013.6 hPa | 0 mm | - | - | - |
| 1777910837 | 20.56° C | 37% | 1013.6 hPa | 0 mm | - | - | - |
| 1777910536 | 20° C | 40% | 1013.5 hPa | 0 mm | - | - | - |
| 1777910236 | 20° C | 37% | 1013.7 hPa | 0 mm | - | - | - |
| 1777909935 | 19.44° C | 41% | 1013.7 hPa | 0 mm | - | - | - |
| 1777909638 | 19.44° C | 40% | 1013.8 hPa | 0 mm | - | - | - |
* Rain latest hour (hover to see other rain measurements)
** Current wind speed in m/s (hover to see current wind gust speed)